SCP
0 0 0 0 0 0 0 0 0 0 0 0 0 0 0 0 0 0 0 0 0 0 0 0 0 0 0 1 2 1 1 1 1 1 1 0 0 0 0 0 0 0 0
0 0 0 0 0 0 0 0 0 0 0 0 0 0 0 0 0 0 0 0 0 0 0 0 0 0 0 0 2 1 1 1 1 1 1 1 0 0 0 0 0 0 0
0 0 0 0 0 0 0 0 0 0 0 0 0 0 0 0 0 0 0 0 0 0 0 0 0 0 0 0 0 1 1 1 1 1 1 1 1 0 0 0 0 0 0
0 0 0 0 0 0 0 0 0 0 0 0 0 0 0 0 0 0 0 0 0 0 0 0 0 0 0 0 0 0 1 2 1 1 1 1 1 0 0 0 0 0 0
0 0 0 0 0 0 0 0 0 0 0 0 0 0 0 0 0 0 0 0 0 0 0 0 0 0 0 0 0 0 1 2 2 2 2 1 1 1 0 0 0 0 0
0 0 0 0 0 0 0 0 0 0 0 0 0 0 0 0 0 0 0 0 0 0 0 0 0 0 0 0 0 1 1 1 1 1 2 2 2 1 1 0 0 0 0
0 0 0 0 0 0 0 0 0 0 0 0 0 0 0 0 0 0 0 0 0 0 0 0 0 0 0 0 0 0 1 1 1 0 0 1 1 2 1 0 0 0 0
0 0 0 0 0 0 0 0 0 0 0 0 0 0 0 0 0 0 0 0 0 0 0 0 0 0 0 0 0 0 0 0 1 0 0 0 1 1 1 1 1 0 0
0 0 0 0 0 0 0 0 0 0 0 0 0 0 0 0 0 0 0 0 0 0 0 0 0 0 0 0 0 1 1 0 1 1 0 0 0 0 1 2 1 0 0
0 0 0 0 0 0 0 0 0 0 0 0 0 0 0 0 0 0 0 0 0 0 0 0 0 0 0 0 0 0 0 1 1 1 1 0 0 0 0 0 1 0 0
0 0 0 0 0 0 0 0 0 0 0 0 0 0 0 0 0 0 0 0 0 0 0 0 0 0 0 0 1 0 0 0 0 0 1 1 0 -0 0 -0 0 0 1
0 0 0 0 0 0 0 0 0 0 0 0 0 0 0 0 0 0 0 0 0 0 0 0 0 0 0 0 0 0 0 0 0 0 0 1 1 0 0 1 1 1 1
0 0 0 0 0 0 0 0 0 0 0 0 0 0 0 0 0 0 0 0 0 0 0 0 0 0 0 0 0 0 0 0 0 0 0 0 0 1 2 2 2 1 0
0 0 0 0 0 0 0 0 0 0 0 0 0 0 0 0 0 0 0 0 0 0 0 0 0 0 0 0 0 0 0 0 0 0 0 0 0 0 0 0 0 0 0
0 0 0 0 0 0 0 0 0 0 0 0 0 0 0 0 0 0 0 0 0 0 0 0 0 0 0 0 0 0 0 0 -0 -0 0 -0 -0 -0 -0 0 0 0 0
0 0 0 0 0 0 0 0 0 0 0 0 0 0 0 0 0 0 0 0 0 0 0 0 0 0 0 0 0 0 0 0 -0 -0 -0 -0 -0 -0 -0 -0 -0 0 0
0 0 0 0 0 0 0 0 0 0 0 0 0 0 0 0 0 0 0 0 0 0 0 0 0 0 0 0 0 0 0 0 0 -0 -0 -0 -0 -0 -0 -0 -0 0 0
0 0 0 0 0 0 0 0 0 0 0 0 0 0 0 0 0 -0 -0 -0 0 0 0 0 0 0 0 0 0 0 0 0 0 -0 -0 -0 -0 -0 -0 -0 -0 0 0
0 0 0 0 0 0 0 0 0 0 0 0 0 0 0 0 -0 0 0 -0 0 0 0 0 0 0 0 0 0 0 0 0 0 -0 -0 -0 -0 -0 -0 -0 0 0 0
0 0 0 0 0 0 0 0 0 -0 -0 0 -0 0 0 0 -0 -0 0 0 0 0 0 0 0 0 0 0 0 0 0 0 0 0 0 -0 -0 -0 -0 -0 -0 0 0
0 0 0 0 0 0 0 0 -0 -0 -0 -0 0 -0 -0 0 -0 0 0 0 0 0 0 0 0 0 0 0 0 0 0 0 0 0 0 0 0 0 -0 -0 -0 -0 0
0 0 0 0 0 0 -0 -0 -0 -0 0 0 0 0 0 0 -0 0 0 0 0 0 0 0 0 0 0 0 0 0 0 0 0 0 0 0 0 0 0 0 -0 -0 0
0 0 0 0 0 -0 -0 -0 -0 0 0 0 0 0 0 0 0 0 0 0 0 0 0 0 0 0 0 0 0 0 -0 0 0 0 0 0 0 0 0 0 -0 0 -0
-0 0 -0 0 -0 -0 -0 0 0 0 0 0 0 0 0 -0 0 0 0 0 0 0 0 0 0 0 0 -0 0 0 -0 0 0 0 0 0 -0 -0 -0 0 -0 0 -0
0 0 0 0 -0 -0 -0 0 0 0 0 0 0 0 -0 -0 -0 0 0 0 0 0 0 0 0 -0 -0 0 0 -0 0 -0 0 0 0 -0 0 0 0 -0 0 -0 -0
0 0 0 0 0 -0 -0 0 0 0 0 0 0 0 -0 -0 -0 -0 0 -0 -0 -0 -0 -0 -0 -0 0 -0 0 0 0 0 -0 0 0 0 0 -0 -0 0 -0 -0 -0
Wind_Speed_500mb
27 23 29 39 41 42 42 43 44 45 47 48 48 45 44 42 42 40 37 41 45 39 38 35 39 38 34 33 34 41 49 50 50 47 49 49 52 52 47 44 42 40 39
35 29 40 36 36 35 38 39 42 43 43 43 45 45 45 45 45 43 42 40 45 47 44 45 45 42 45 38 35 35 40 51 54 56 52 52 54 58 56 52 48 47 46
38 45 31 34 33 36 36 38 40 42 43 43 43 42 43 44 44 43 43 44 44 47 48 49 49 49 44 47 43 40 37 38 49 54 55 54 53 57 62 57 55 55 52
42 46 36 36 37 37 37 39 40 41 41 41 44 44 45 46 47 46 47 46 46 45 48 52 52 55 50 44 49 45 42 41 38 51 55 52 51 54 59 62 63 61 60
39 54 38 37 42 39 41 41 40 39 41 41 42 43 45 48 46 45 45 48 50 54 56 57 57 62 60 50 47 47 37 36 41 43 55 53 49 52 55 61 67 67 66
43 50 39 36 38 41 42 41 44 41 39 39 41 42 43 44 43 44 42 43 45 48 46 48 47 50 46 40 44 47 42 34 36 39 46 57 55 51 51 58 60 61 47
34 35 37 39 39 40 42 41 40 39 38 35 36 37 35 33 34 34 37 38 32 30 31 31 29 26 31 31 42 38 39 40 39 39 37 52 57 53 51 54 59 53 57
32 36 39 40 40 47 44 40 47 42 37 32 31 33 34 34 33 30 27 34 31 25 23 23 21 23 26 22 25 33 38 40 38 35 33 41 45 49 47 47 52 49 48
35 37 41 43 45 45 43 46 45 45 42 37 31 28 15 23 29 25 25 21 21 21 19 20 20 19 18 19 19 15 21 31 38 38 33 32 26 61 42 36 47 46 50
39 40 43 46 46 44 42 37 42 47 39 39 32 36 38 37 22 23 22 17 18 19 25 20 10 12 13 12 18 21 23 26 25 33 38 36 36 29 67 40 41 41 38
42 44 46 44 36 32 35 35 32 33 35 38 37 35 36 34 30 26 35 26 23 16 21 26 20 13 14 16 9 22 22 24 26 25 30 38 43 45 49 52 49 41 39
45 43 42 35 36 38 37 37 36 37 39 37 39 36 37 32 33 29 28 32 26 26 19 23 28 25 16 17 20 18 14 11 14 16 20 26 39 43 46 57 52 49 43
46 42 38 37 40 48 46 43 44 43 41 41 41 39 39 44 42 44 47 46 35 41 25 22 24 22 22 18 18 13 16 11 7 5 3 7 8 30 49 40 37 37 42
41 40 38 39 55 50 38 38 40 41 38 38 39 41 40 42 45 37 43 43 42 35 39 29 22 19 16 16 19 16 6 7 13 10 9 9 6 31 38 39 62 72 70
39 39 42 50 53 39 35 36 39 36 32 34 32 29 29 27 27 30 35 39 37 28 24 25 33 27 16 13 14 15 14 13 12 18 12 16 23 24 33 49 54 53 50
40 41 42 56 41 36 35 35 32 34 29 25 25 25 25 23 24 26 30 28 35 29 20 18 41 30 27 23 24 22 26 41 36 40 31 24 28 31 34 40 45 42 40
37 40 52 44 37 36 31 31 30 27 24 25 24 20 19 22 22 24 20 26 25 26 30 30 21 31 32 30 38 32 28 29 33 38 49 54 50 46 45 45 43 39 37
37 48 47 36 35 29 30 29 25 24 23 18 19 17 16 15 13 13 10 11 22 20 30 15 37 25 40 43 44 36 32 30 28 28 23 26 29 29 29 31 29 29 30
47 48 42 29 30 25 25 24 20 20 19 17 20 22 20 18 19 17 15 12 19 19 24 21 48 49 46 42 44 41 41 41 40 36 36 32 38 40 34 34 29 24 21
46 41 32 22 21 19 20 19 16 16 18 22 26 28 23 23 25 18 15 17 15 18 28 31 47 49 44 42 35 44 47 46 49 43 45 39 35 34 29 24 22 20 22
38 30 21 21 16 13 15 16 13 19 24 23 24 20 18 13 5 11 24 19 24 23 32 55 54 51 50 38 48 46 58 57 56 52 52 45 35 37 38 37 35 33 26
37 25 19 13 8 10 13 9 19 18 24 26 25 24 33 28 16 21 29 24 23 44 46 48 55 49 45 44 55 62 63 56 53 39 41 39 29 33 34 38 34 33 31
23 19 15 10 10 12 8 12 20 19 24 28 31 20 39 36 36 37 34 32 34 31 26 32 51 44 49 58 67 53 41 35 39 34 35 41 32 35 35 36 33 32 31
18 15 15 14 16 16 14 15 14 23 29 31 31 40 34 36 27 29 33 38 31 31 26 43 40 45 56 50 42 38 42 42 38 33 30 42 33 36 35 35 31 27 25
18 17 15 20 19 18 17 14 13 18 21 22 28 32 34 38 38 34 37 44 45 40 38 50 59 61 58 45 39 36 33 31 32 31 27 37 35 37 33 33 30 25 26
27 21 19 22 22 22 21 18 16 17 21 22 26 30 34 36 41 41 55 63 57 60 66 63 59 54 40 47 40 28 19 29 31 30 28 35 37 38 37 24 26 29 30
Wind_Direction_500mb
306 322 325 328 320 314 312 305 300 294 288 285 283 279 277 275 274 273 275 281 288 283 284 280 276 282 276 277 272 262 254 250 249 246 244 244 242 240 241 241 240 239 238
310 322 322 321 320 316 314 308 301 294 293 287 282 279 277 275 271 272 274 275 283 285 278 278 280 280 278 276 276 274 262 252 251 247 245 245 245 241 239 240 241 239 238
306 315 326 325 320 316 317 312 306 300 293 288 284 280 278 275 273 272 272 273 272 278 281 283 277 276 276 270 272 269 272 259 251 248 245 244 244 244 242 240 241 242 238
313 325 324 321 312 322 314 310 308 303 297 290 282 277 274 271 271 273 274 277 274 268 269 276 283 279 272 278 265 266 265 267 258 247 245 246 245 245 242 241 241 241 240
315 322 325 317 315 318 315 314 309 304 300 295 289 283 276 272 273 273 272 272 273 274 272 270 267 272 273 273 261 256 262 266 261 255 244 245 248 244 245 242 242 241 239
313 320 321 310 316 317 314 309 313 308 300 299 293 286 280 273 268 270 272 278 278 278 274 270 263 263 271 251 247 248 250 258 259 259 256 249 245 244 240 241 242 246 241
312 308 313 311 311 308 307 311 308 312 302 295 294 289 282 274 272 270 278 282 280 285 280 272 263 249 246 265 245 244 248 255 255 256 259 257 248 244 248 243 241 244 236
306 307 306 308 306 310 310 306 301 309 305 294 290 289 286 281 267 266 275 281 277 273 281 267 250 234 234 240 244 245 248 248 249 250 250 244 253 230 240 245 244 235 234
307 308 313 314 313 311 305 297 297 295 293 288 279 272 279 267 296 274 286 278 282 274 268 255 232 231 235 224 245 255 251 249 251 257 255 244 244 234 235 242 246 235 232
311 317 316 311 307 304 296 295 292 293 289 286 275 265 264 270 284 285 277 273 285 268 268 266 274 240 227 223 258 251 261 270 264 253 253 251 243 235 231 244 242 227 239
313 312 313 315 315 318 309 307 305 305 296 285 277 275 267 275 266 265 277 281 286 294 275 259 257 253 238 232 261 262 252 252 260 264 258 245 238 231 227 237 239 230 230
312 311 312 313 312 309 304 298 294 297 300 291 277 285 270 270 274 271 277 283 287 293 303 262 246 247 252 248 242 256 255 253 260 275 275 253 237 225 219 220 226 232 215
312 312 310 308 310 311 305 301 298 300 298 285 282 279 279 270 274 275 271 271 277 277 292 285 254 245 242 235 226 237 250 238 264 306 259 299 253 213 210 214 210 194 189
311 306 307 305 314 313 311 299 299 301 295 290 284 280 280 275 274 264 264 264 272 260 269 276 256 239 219 201 211 225 243 228 223 256 292 346 88 142 161 171 151 145 159
305 307 300 311 316 315 307 302 303 305 298 296 293 283 280 280 266 258 256 257 253 251 248 253 250 201 189 176 206 207 194 184 158 177 163 156 142 117 109 118 124 130 129
311 304 308 314 315 311 307 308 313 313 302 300 296 292 284 281 267 263 257 253 237 230 241 263 229 182 193 173 158 164 159 151 151 155 159 157 144 136 129 133 134 133 138
306 311 314 315 314 316 312 315 313 312 307 308 303 304 300 292 263 267 248 236 234 228 227 239 222 197 176 171 146 143 145 139 136 128 124 121 123 124 123 121 128 134 133
310 320 316 315 316 318 317 317 313 315 317 313 308 299 298 303 260 245 228 237 211 217 204 221 148 169 165 150 141 135 129 125 130 122 122 107 105 101 103 101 101 112 121
318 317 318 315 319 319 325 325 316 321 319 317 313 308 299 288 274 256 238 224 192 202 201 175 142 144 138 130 128 119 113 111 110 109 109 109 106 98 92 81 78 87 102
319 320 319 323 321 322 341 347 330 336 334 334 330 319 307 294 285 255 230 208 182 184 169 175 150 147 142 129 129 123 118 110 105 102 96 96 100 101 106 114 121 117 116
343 328 331 333 329 339 358 343 348 347 353 348 343 352 338 315 290 226 187 197 188 212 179 167 157 158 148 147 131 122 117 111 102 99 93 79 95 100 105 109 108 109 113
332 343 339 349 339 1 356 356 6 5 11 26 24 44 44 60 95 111 132 153 170 163 167 170 162 152 146 143 132 125 118 110 94 90 95 95 95 98 100 106 107 108 112
332 346 5 39 23 19 42 33 33 35 38 42 37 70 51 71 92 107 116 131 166 172 185 183 158 150 147 139 126 113 100 109 111 112 109 100 95 96 109 113 108 106 103
4 27 52 36 53 57 57 41 52 49 59 52 50 56 64 68 84 106 116 114 125 135 156 159 156 137 126 124 113 110 120 111 106 107 107 105 102 95 108 113 114 109 107
40 62 64 49 46 54 42 51 69 56 63 62 58 71 78 72 79 113 115 124 121 120 120 123 125 126 135 130 123 114 111 113 114 111 105 106 104 101 97 107 107 104 103
69 62 59 57 52 57 47 57 67 42 65 74 68 74 90 88 89 96 119 123 120 121 126 132 128 131 126 123 126 130 109 114 118 118 126 117 115 112 103 94 90 92 96
Wind_Speed_850mb
27 23 29 39 41 42 42 43 44 45 47 48 48 45 44 42 42 40 37 41 45 39 38 35 39 38 34 33 34 41 49 50 50 47 49 49 52 52 47 44 42 40 39
35 29 40 36 36 35 38 39 42 43 43 43 45 45 45 45 45 43 42 40 45 47 44 45 45 42 45 38 35 35 40 51 54 56 52 52 54 58 56 52 48 47 46
38 45 31 34 33 36 36 38 40 42 43 43 43 42 43 44 44 43 43 44 44 47 48 49 49 49 44 47 43 40 37 38 49 54 55 54 53 57 62 57 55 55 52
42 46 36 36 37 37 37 39 40 41 41 41 44 44 45 46 47 46 47 46 46 45 48 52 52 55 50 44 49 45 42 41 38 51 55 52 51 54 59 62 63 61 60
39 54 38 37 42 39 41 41 40 39 41 41 42 43 45 48 46 45 45 48 50 54 56 57 57 62 60 50 47 47 37 36 41 43 55 53 49 52 55 61 67 67 66
43 50 39 36 38 41 42 41 44 41 39 39 41 42 43 44 43 44 42 43 45 48 46 48 47 50 46 40 44 47 42 34 36 39 46 57 55 51 51 58 60 61 47
34 35 37 39 39 40 42 41 40 39 38 35 36 37 35 33 34 34 37 38 32 30 31 31 29 26 31 31 42 38 39 40 39 39 37 52 57 53 51 54 59 53 57
32 36 39 40 40 47 44 40 47 42 37 32 31 33 34 34 33 30 27 34 31 25 23 23 21 23 26 22 25 33 38 40 38 35 33 41 45 49 47 47 52 49 48
35 37 41 43 45 45 43 46 45 45 42 37 31 28 15 23 29 25 25 21 21 21 19 20 20 19 18 19 19 15 21 31 38 38 33 32 26 61 42 36 47 46 50
39 40 43 46 46 44 42 37 42 47 39 39 32 36 38 37 22 23 22 17 18 19 25 20 10 12 13 12 18 21 23 26 25 33 38 36 36 29 67 40 41 41 38
42 44 46 44 36 32 35 35 32 33 35 38 37 35 36 34 30 26 35 26 23 16 21 26 20 13 14 16 9 22 22 24 26 25 30 38 43 45 49 52 49 41 39
45 43 42 35 36 38 37 37 36 37 39 37 39 36 37 32 33 29 28 32 26 26 19 23 28 25 16 17 20 18 14 11 14 16 20 26 39 43 46 57 52 49 43
46 42 38 37 40 48 46 43 44 43 41 41 41 39 39 44 42 44 47 46 35 41 25 22 24 22 22 18 18 13 16 11 7 5 3 7 8 30 49 40 37 37 42
41 40 38 39 55 50 38 38 40 41 38 38 39 41 40 42 45 37 43 43 42 35 39 29 22 19 16 16 19 16 6 7 13 10 9 9 6 31 38 39 62 72 70
39 39 42 50 53 39 35 36 39 36 32 34 32 29 29 27 27 30 35 39 37 28 24 25 33 27 16 13 14 15 14 13 12 18 12 16 23 24 33 49 54 53 50
40 41 42 56 41 36 35 35 32 34 29 25 25 25 25 23 24 26 30 28 35 29 20 18 41 30 27 23 24 22 26 41 36 40 31 24 28 31 34 40 45 42 40
37 40 52 44 37 36 31 31 30 27 24 25 24 20 19 22 22 24 20 26 25 26 30 30 21 31 32 30 38 32 28 29 33 38 49 54 50 46 45 45 43 39 37
37 48 47 36 35 29 30 29 25 24 23 18 19 17 16 15 13 13 10 11 22 20 30 15 37 25 40 43 44 36 32 30 28 28 23 26 29 29 29 31 29 29 30
47 48 42 29 30 25 25 24 20 20 19 17 20 22 20 18 19 17 15 12 19 19 24 21 48 49 46 42 44 41 41 41 40 36 36 32 38 40 34 34 29 24 21
46 41 32 22 21 19 20 19 16 16 18 22 26 28 23 23 25 18 15 17 15 18 28 31 47 49 44 42 35 44 47 46 49 43 45 39 35 34 29 24 22 20 22
38 30 21 21 16 13 15 16 13 19 24 23 24 20 18 13 5 11 24 19 24 23 32 55 54 51 50 38 48 46 58 57 56 52 52 45 35 37 38 37 35 33 26
37 25 19 13 8 10 13 9 19 18 24 26 25 24 33 28 16 21 29 24 23 44 46 48 55 49 45 44 55 62 63 56 53 39 41 39 29 33 34 38 34 33 31
23 19 15 10 10 12 8 12 20 19 24 28 31 20 39 36 36 37 34 32 34 31 26 32 51 44 49 58 67 53 41 35 39 34 35 41 32 35 35 36 33 32 31
18 15 15 14 16 16 14 15 14 23 29 31 31 40 34 36 27 29 33 38 31 31 26 43 40 45 56 50 42 38 42 42 38 33 30 42 33 36 35 35 31 27 25
18 17 15 20 19 18 17 14 13 18 21 22 28 32 34 38 38 34 37 44 45 40 38 50 59 61 58 45 39 36 33 31 32 31 27 37 35 37 33 33 30 25 26
27 21 19 22 22 22 21 18 16 17 21 22 26 30 34 36 41 41 55 63 57 60 66 63 59 54 40 47 40 28 19 29 31 30 28 35 37 38 37 24 26 29 30
Wind_Direction_850mb
306 322 325 328 320 314 312 305 300 294 288 285 283 279 277 275 274 273 275 281 288 283 284 280 276 282 276 277 272 262 254 250 249 246 244 244 242 240 241 241 240 239 238
310 322 322 321 320 316 314 308 301 294 293 287 282 279 277 275 271 272 274 275 283 285 278 278 280 280 278 276 276 274 262 252 251 247 245 245 245 241 239 240 241 239 238
306 315 326 325 320 316 317 312 306 300 293 288 284 280 278 275 273 272 272 273 272 278 281 283 277 276 276 270 272 269 272 259 251 248 245 244 244 244 242 240 241 242 238
313 325 324 321 312 322 314 310 308 303 297 290 282 277 274 271 271 273 274 277 274 268 269 276 283 279 272 278 265 266 265 267 258 247 245 246 245 245 242 241 241 241 240
315 322 325 317 315 318 315 314 309 304 300 295 289 283 276 272 273 273 272 272 273 274 272 270 267 272 273 273 261 256 262 266 261 255 244 245 248 244 245 242 242 241 239
313 320 321 310 316 317 314 309 313 308 300 299 293 286 280 273 268 270 272 278 278 278 274 270 263 263 271 251 247 248 250 258 259 259 256 249 245 244 240 241 242 246 241
312 308 313 311 311 308 307 311 308 312 302 295 294 289 282 274 272 270 278 282 280 285 280 272 263 249 246 265 245 244 248 255 255 256 259 257 248 244 248 243 241 244 236
306 307 306 308 306 310 310 306 301 309 305 294 290 289 286 281 267 266 275 281 277 273 281 267 250 234 234 240 244 245 248 248 249 250 250 244 253 230 240 245 244 235 234
307 308 313 314 313 311 305 297 297 295 293 288 279 272 279 267 296 274 286 278 282 274 268 255 232 231 235 224 245 255 251 249 251 257 255 244 244 234 235 242 246 235 232
311 317 316 311 307 304 296 295 292 293 289 286 275 265 264 270 284 285 277 273 285 268 268 266 274 240 227 223 258 251 261 270 264 253 253 251 243 235 231 244 242 227 239
313 312 313 315 315 318 309 307 305 305 296 285 277 275 267 275 266 265 277 281 286 294 275 259 257 253 238 232 261 262 252 252 260 264 258 245 238 231 227 237 239 230 230
312 311 312 313 312 309 304 298 294 297 300 291 277 285 270 270 274 271 277 283 287 293 303 262 246 247 252 248 242 256 255 253 260 275 275 253 237 225 219 220 226 232 215
312 312 310 308 310 311 305 301 298 300 298 285 282 279 279 270 274 275 271 271 277 277 292 285 254 245 242 235 226 237 250 238 264 306 259 299 253 213 210 214 210 194 189
311 306 307 305 314 313 311 299 299 301 295 290 284 280 280 275 274 264 264 264 272 260 269 276 256 239 219 201 211 225 243 228 223 256 292 346 88 142 161 171 151 145 159
305 307 300 311 316 315 307 302 303 305 298 296 293 283 280 280 266 258 256 257 253 251 248 253 250 201 189 176 206 207 194 184 158 177 163 156 142 117 109 118 124 130 129
311 304 308 314 315 311 307 308 313 313 302 300 296 292 284 281 267 263 257 253 237 230 241 263 229 182 193 173 158 164 159 151 151 155 159 157 144 136 129 133 134 133 138
306 311 314 315 314 316 312 315 313 312 307 308 303 304 300 292 263 267 248 236 234 228 227 239 222 197 176 171 146 143 145 139 136 128 124 121 123 124 123 121 128 134 133
310 320 316 315 316 318 317 317 313 315 317 313 308 299 298 303 260 245 228 237 211 217 204 221 148 169 165 150 141 135 129 125 130 122 122 107 105 101 103 101 101 112 121
318 317 318 315 319 319 325 325 316 321 319 317 313 308 299 288 274 256 238 224 192 202 201 175 142 144 138 130 128 119 113 111 110 109 109 109 106 98 92 81 78 87 102
319 320 319 323 321 322 341 347 330 336 334 334 330 319 307 294 285 255 230 208 182 184 169 175 150 147 142 129 129 123 118 110 105 102 96 96 100 101 106 114 121 117 116
343 328 331 333 329 339 358 343 348 347 353 348 343 352 338 315 290 226 187 197 188 212 179 167 157 158 148 147 131 122 117 111 102 99 93 79 95 100 105 109 108 109 113
332 343 339 349 339 1 356 356 6 5 11 26 24 44 44 60 95 111 132 153 170 163 167 170 162 152 146 143 132 125 118 110 94 90 95 95 95 98 100 106 107 108 112
332 346 5 39 23 19 42 33 33 35 38 42 37 70 51 71 92 107 116 131 166 172 185 183 158 150 147 139 126 113 100 109 111 112 109 100 95 96 109 113 108 106 103
4 27 52 36 53 57 57 41 52 49 59 52 50 56 64 68 84 106 116 114 125 135 156 159 156 137 126 124 113 110 120 111 106 107 107 105 102 95 108 113 114 109 107
40 62 64 49 46 54 42 51 69 56 63 62 58 71 78 72 79 113 115 124 121 120 120 123 125 126 135 130 123 114 111 113 114 111 105 106 104 101 97 107 107 104 103
69 62 59 57 52 57 47 57 67 42 65 74 68 74 90 88 89 96 119 123 120 121 126 132 128 131 126 123 126 130 109 114 118 118 126 117 115 112 103 94 90 92 96